TimeCST,TemperatureF,Dew PointF,Humidity,Sea Level PressureIn,VisibilityMPH,Wind Direction,Wind SpeedMPH,Gust SpeedMPH,PrecipitationIn,Events,Conditions,WindDirDegrees,DateUTC
12:15 AM,48.2,42.8,82,30.10,10.0,Calm,Calm,-,N/A,,Overcast,0,2012-12-06 06:15:00
12:35 AM,48.2,42.8,82,30.09,10.0,Calm,Calm,-,N/A,,Overcast,0,2012-12-06 06:35:00
12:55 AM,48.2,42.8,82,30.09,10.0,Calm,Calm,-,N/A,,Overcast,0,2012-12-06 06:55:00
1:15 AM,50.0,41.0,71,30.09,10.0,Calm,Calm,-,N/A,,Overcast,0,2012-12-06 07:15:00
1:35 AM,50.0,42.8,76,30.09,10.0,Calm,Calm,-,N/A,,Overcast,0,2012-12-06 07:35:00
1:55 AM,50.0,42.8,76,30.09,10.0,Calm,Calm,-,N/A,,Overcast,0,2012-12-06 07:55:00
2:15 AM,50.0,44.6,82,30.08,10.0,Calm,Calm,-,N/A,,Overcast,0,2012-12-06 08:15:00
2:35 AM,50.0,41.0,71,30.08,10.0,Calm,Calm,-,N/A,,Overcast,0,2012-12-06 08:35:00
2:55 AM,51.8,42.8,71,30.07,10.0,East,3.5,-,N/A,,Overcast,100,2012-12-06 08:55:00
3:15 AM,51.8,44.6,76,30.08,10.0,Calm,Calm,-,N/A,,Overcast,0,2012-12-06 09:15:00
3:55 AM,51.8,48.2,88,30.07,10.0,Calm,Calm,-,N/A,,Overcast,0,2012-12-06 09:55:00
4:15 AM,51.8,48.2,88,30.08,9.0,Calm,Calm,-,N/A,,Overcast,0,2012-12-06 10:15:00
4:35 AM,51.8,48.2,88,30.07,10.0,Calm,Calm,-,N/A,,Overcast,0,2012-12-06 10:35:00
4:55 AM,50.0,46.4,87,30.07,10.0,NE,3.5,-,N/A,,Overcast,40,2012-12-06 10:55:00
5:15 AM,50.0,46.4,87,30.08,10.0,Calm,Calm,-,N/A,,Overcast,0,2012-12-06 11:15:00
5:35 AM,50.0,46.4,87,30.08,10.0,NE,3.5,-,N/A,,Overcast,40,2012-12-06 11:35:00
5:55 AM,50.0,46.4,87,30.08,8.0,Calm,Calm,-,N/A,,Overcast,0,2012-12-06 11:55:00
6:15 AM,50.0,48.2,94,30.08,6.0,East,3.5,-,N/A,,Overcast,80,2012-12-06 12:15:00
6:35 AM,50.0,48.2,94,30.08,4.0,ENE,3.5,-,N/A,,Overcast,70,2012-12-06 12:35:00
6:55 AM,50.0,48.2,94,30.08,3.0,Calm,Calm,-,N/A,,Overcast,0,2012-12-06 12:55:00
7:35 AM,51.8,50.0,94,30.08,0.2,Calm,Calm,-,N/A,Fog,Fog,0,2012-12-06 13:35:00
7:55 AM,51.8,50.0,94,30.08,0.2,ESE,3.5,-,N/A,Fog,Fog,120,2012-12-06 13:55:00
8:15 AM,53.6,51.8,94,30.08,0.2,Calm,Calm,-,N/A,Fog,Fog,0,2012-12-06 14:15:00
8:55 AM,55.4,53.6,94,30.09,3.0,Calm,Calm,-,N/A,,Overcast,0,2012-12-06 14:55:00
9:15 AM,55.4,53.6,94,30.09,4.0,Calm,Calm,-,N/A,,Overcast,0,2012-12-06 15:15:00
9:35 AM,55.4,55.4,100,30.09,4.0,SSE,3.5,-,N/A,,Overcast,150,2012-12-06 15:35:00
10:15 AM,57.2,55.4,94,30.08,4.0,Calm,Calm,-,N/A,,Overcast,0,2012-12-06 16:15:00
10:35 AM,57.2,55.4,94,30.08,3.0,Calm,Calm,-,N/A,Rain,Light Rain,0,2012-12-06 16:35:00
10:55 AM,57.2,55.4,94,30.07,5.0,SSW,4.6,-,N/A,,Overcast,210,2012-12-06 16:55:00
11:15 AM,59.0,55.4,88,30.06,5.0,SSW,4.6,-,N/A,,Overcast,200,2012-12-06 17:15:00
11:35 AM,59.0,55.4,88,30.05,5.0,South,4.6,-,N/A,,Overcast,180,2012-12-06 17:35:00
11:55 AM,59.0,55.4,88,30.04,5.0,South,3.5,-,N/A,,Haze,180,2012-12-06 17:55:00
12:35 PM,59.0,55.4,88,30.02,5.0,Calm,Calm,-,N/A,,Mostly Cloudy,0,2012-12-06 18:35:00
12:55 PM,60.8,55.4,82,30.01,5.0,Calm,Calm,-,N/A,,Haze,0,2012-12-06 18:55:00
1:15 PM,60.8,55.4,82,30.01,7.0,Calm,Calm,-,N/A,,Overcast,0,2012-12-06 19:15:00
1:35 PM,62.6,57.2,82,30.00,7.0,SE,3.5,-,N/A,,Overcast,130,2012-12-06 19:35:00
1:55 PM,62.6,57.2,82,29.99,7.0,Calm,Calm,-,N/A,,Mostly Cloudy,0,2012-12-06 19:55:00
2:35 PM,62.6,57.2,82,30.00,7.0,Calm,Calm,-,N/A,,Overcast,0,2012-12-06 20:35:00
2:55 PM,62.6,57.2,82,30.00,5.0,Calm,Calm,-,N/A,Rain,Light Rain,0,2012-12-06 20:55:00
3:15 PM,62.6,57.2,82,30.00,6.0,Calm,Calm,-,N/A,,Overcast,0,2012-12-06 21:15:00
3:35 PM,62.6,57.2,82,30.00,6.0,South,3.5,-,N/A,,Mostly Cloudy,170,2012-12-06 21:35:00
3:55 PM,62.6,57.2,82,30.00,7.0,Calm,Calm,-,N/A,,Mostly Cloudy,0,2012-12-06 21:55:00
4:15 PM,62.6,57.2,82,30.00,5.0,Calm,Calm,-,N/A,,Overcast,0,2012-12-06 22:15:00
4:35 PM,60.8,57.2,88,29.99,5.0,Calm,Calm,-,N/A,,Scattered Clouds,0,2012-12-06 22:35:00
4:55 PM,59.0,57.2,94,29.99,5.0,Calm,Calm,-,N/A,,Scattered Clouds,0,2012-12-06 22:55:00
5:15 PM,59.0,57.2,94,29.99,7.0,Calm,Calm,-,N/A,,Scattered Clouds,0,2012-12-06 23:15:00
5:35 PM,59.0,57.2,94,29.99,5.0,Calm,Calm,-,N/A,,Mostly Cloudy,0,2012-12-06 23:35:00
5:55 PM,59.0,57.2,94,29.99,6.0,Calm,Calm,-,N/A,,Mostly Cloudy,0,2012-12-06 23:55:00
6:15 PM,59.0,57.2,94,29.99,5.0,Calm,Calm,-,N/A,,Mostly Cloudy,0,2012-12-07 00:15:00
6:35 PM,59.0,57.2,94,29.99,5.0,Calm,Calm,-,N/A,,Overcast,0,2012-12-07 00:35:00
7:15 PM,59.0,57.2,94,29.99,5.0,Calm,Calm,-,N/A,Rain,Light Rain,0,2012-12-07 01:15:00
7:35 PM,59.0,57.2,94,30.00,5.0,Calm,Calm,-,N/A,,Overcast,0,2012-12-07 01:35:00
7:55 PM,59.0,57.2,94,29.99,5.0,Calm,Calm,-,N/A,,Mostly Cloudy,0,2012-12-07 01:55:00
8:15 PM,57.2,57.2,100,29.99,4.0,Calm,Calm,-,N/A,Rain,Light Rain,0,2012-12-07 02:15:00
8:35 PM,57.2,57.2,100,29.99,3.0,Calm,Calm,-,0.01,Rain,Light Rain,0,2012-12-07 02:35:00
8:55 PM,57.2,57.2,100,29.99,1.0,Calm,Calm,-,0.01,,Overcast,0,2012-12-07 02:55:00
9:15 PM,57.2,57.2,100,29.99,1.2,Calm,Calm,-,N/A,,Overcast,0,2012-12-07 03:15:00
9:35 PM,57.2,57.2,100,29.99,1.5,Calm,Calm,-,N/A,,Overcast,0,2012-12-07 03:35:00
9:55 PM,57.2,57.2,100,29.98,1.5,Calm,Calm,-,N/A,,Overcast,0,2012-12-07 03:55:00
10:15 PM,57.2,57.2,100,29.98,3.0,Calm,Calm,-,N/A,,Overcast,0,2012-12-07 04:15:00
10:35 PM,57.2,57.2,100,29.97,3.0,Calm,Calm,-,N/A,,Overcast,0,2012-12-07 04:35:00
10:55 PM,57.2,57.2,100,29.97,5.0,Calm,Calm,-,N/A,,Overcast,0,2012-12-07 04:55:00
11:15 PM,57.2,57.2,100,29.97,6.0,Calm,Calm,-,N/A,,Overcast,0,2012-12-07 05:15:00
11:35 PM,57.2,57.2,100,29.96,7.0,SE,3.5,-,N/A,,Mostly Cloudy,140,2012-12-07 05:35:00
11:55 PM,57.2,57.2,100,29.96,9.0,Calm,Calm,-,N/A,,Mostly Cloudy,0,2012-12-07 05:55:00